Location: Seasalter
(51.3333°N, 1.0167°E)
Time: 18:12:16
(UTC+00:00)

ATLAS 5 CENTAUR R/B - Pass Details

Date: 28 April 2024
Orbit: 392 x 1122 km, 63.3° (Epoch: 18 April)

Event Time Altitude Azimuth Distance (km) Brightness Sun altitude
Rises 21:07:30 0° 308° (NW) 2,622 6.5 -14.9°
Reaches altitude 10° 21:10:02 10° 327° (NNW) 1,857 5.4 -15.2°
Maximum altitude 21:13:03 19° 14° (NNE) 1,513 4.0 -15.5°
Drops below altitude 10° 21:16:33 10° 59° (ENE) 2,202 4.3 -15.8°
Sets 21:19:53 0° 77° (ENE) 3,312 5.0 -16.2°
